Time,TemperatureF,DewpointF,PressureIn,WindDirection,WindDirectionDegrees,WindSpeedMPH,WindSpeedGustMPH,Humidity,HourlyPrecipIn,Conditions,Clouds,dailyrainin,SolarRadiationWatts/m^2,SoftwareType,DateUTC
2013-03-04 00:00:00,42.5,38.9,29.99,NW,304,0.0,2.0,87,0.00,,OVC060,0.00,0.00,VWS V14.01,2013-03-04 08:00:00,
2013-03-04 00:05:00,42.5,38.9,30.00,NW,304,1.0,2.0,87,0.00,,OVC060,0.00,0.00,VWS V14.01,2013-03-04 08:05:00,
2013-03-04 00:10:00,42.6,39.0,30.00,NW,304,1.0,1.0,87,0.00,,OVC060,0.00,0.00,VWS V14.01,2013-03-04 08:10:00,
2013-03-04 00:16:00,42.6,39.0,30.00,NW,304,0.0,1.0,87,0.00,,OVC060,0.00,0.00,VWS V14.01,2013-03-04 08:16:00,
2013-03-04 00:21:00,42.7,38.8,30.00,NW,304,1.0,1.0,86,0.00,,OVC060,0.00,0.00,VWS V14.01,2013-03-04 08:21:00,
2013-03-04 00:26:00,42.8,38.9,30.00,NW,304,0.0,1.0,86,0.00,,OVC060,0.00,0.00,VWS V14.01,2013-03-04 08:26:00,
2013-03-04 00:30:00,42.7,38.8,30.00,NW,304,0.0,0.0,86,0.00,,OVC060,0.00,0.00,VWS V14.01,2013-03-04 08:30:00,
2013-03-04 00:35:00,42.7,38.8,30.00,NW,304,0.0,0.0,86,0.00,,OVC060,0.00,0.00,VWS V14.01,2013-03-04 08:35:00,
2013-03-04 00:41:00,42.7,38.8,30.00,NW,304,1.0,1.0,86,0.00,,OVC060,0.00,0.00,VWS V14.01,2013-03-04 08:41:00,
2013-03-04 00:46:00,42.7,38.8,30.01,NW,304,0.0,1.0,86,0.00,,OVC060,0.00,0.00,VWS V14.01,2013-03-04 08:46:00,
2013-03-04 00:51:00,42.8,38.6,30.01,NW,304,1.0,1.0,85,0.00,,OVC060,0.00,0.00,VWS V14.01,2013-03-04 08:51:00,
2013-03-04 00:56:00,42.9,38.7,30.01,NW,304,2.0,3.0,85,0.00,,OVC060,0.00,0.00,VWS V14.01,2013-03-04 08:56:00,
2013-03-04 01:01:00,43.1,38.9,30.01,NW,304,2.0,2.0,85,0.00,,OVC065,0.00,0.00,VWS V14.01,2013-03-04 09:01:00,
2013-03-04 01:06:00,43.2,38.7,30.02,NW,304,2.0,3.0,84,0.00,,OVC065,0.00,0.00,VWS V14.01,2013-03-04 09:06:00,
2013-03-04 01:11:00,43.3,38.5,30.02,WNW,303,0.0,2.0,83,0.00,,OVC065,0.00,0.00,VWS V14.01,2013-03-04 09:11:00,
2013-03-04 01:16:00,43.3,38.5,30.02,WNW,303,1.0,2.0,83,0.00,,OVC065,0.00,0.00,VWS V14.01,2013-03-04 09:16:00,
2013-03-04 01:21:00,43.2,38.4,30.01,WNW,303,0.0,1.0,83,0.00,,OVC065,0.00,0.00,VWS V14.01,2013-03-04 09:21:00,
2013-03-04 01:26:00,43.0,38.2,30.01,WNW,303,2.0,2.0,83,0.00,,OVC065,0.00,0.00,VWS V14.01,2013-03-04 09:26:00,
2013-03-04 01:31:00,42.8,37.7,30.02,WNW,303,3.0,3.0,82,0.00,,OVC065,0.00,0.00,VWS V14.01,2013-03-04 09:31:00,
2013-03-04 01:36:00,42.5,37.4,30.02,WNW,292,4.0,5.0,82,0.00,,OVC065,0.00,0.00,VWS V14.01,2013-03-04 09:36:00,
2013-03-04 01:41:00,42.2,37.1,30.02,WNW,294,2.0,3.0,82,0.00,,OVC065,0.00,0.00,VWS V14.01,2013-03-04 09:41:00,
2013-03-04 01:46:00,42.0,36.9,30.02,WNW,294,0.0,3.0,82,0.00,,OVC065,0.00,0.00,VWS V14.01,2013-03-04 09:46:00,
2013-03-04 01:51:00,41.4,36.3,30.02,NNW,348,2.0,3.0,82,0.00,,OVC065,0.00,0.00,VWS V14.01,2013-03-04 09:51:00,
2013-03-04 01:56:00,40.9,36.1,30.02,North,351,1.0,2.0,83,0.00,,OVC065,0.00,0.00,VWS V14.01,2013-03-04 09:56:00,
2013-03-04 02:01:00,40.6,36.2,30.02,North,355,2.0,3.0,84,0.00,,SCT060,0.00,0.00,VWS V14.01,2013-03-04 10:01:00,
2013-03-04 02:06:00,40.3,35.9,30.02,North,351,2.0,4.0,84,0.00,,SCT060,0.00,0.00,VWS V14.01,2013-03-04 10:06:00,
2013-03-04 02:11:00,40.0,35.6,30.03,North,351,0.0,1.0,84,0.00,,SCT060,0.00,0.00,VWS V14.01,2013-03-04 10:11:00,
2013-03-04 02:16:00,39.6,35.2,30.03,North,351,1.0,3.0,84,0.00,,SCT060,0.00,0.00,VWS V14.01,2013-03-04 10:16:00,
2013-03-04 02:21:00,39.4,35.0,30.03,North,351,1.0,3.0,84,0.00,,SCT060,0.00,0.00,VWS V14.01,2013-03-04 10:21:00,
2013-03-04 02:26:00,39.1,35.0,30.03,North,351,0.0,2.0,85,0.00,,SCT060,0.00,0.00,VWS V14.01,2013-03-04 10:26:00,
2013-03-04 02:31:00,38.8,34.7,30.03,North,351,1.0,1.0,85,0.00,,SCT060,0.00,0.00,VWS V14.01,2013-03-04 10:31:00,
2013-03-04 02:36:00,38.7,34.6,30.03,North,351,1.0,1.0,85,0.00,,SCT060,0.00,0.00,VWS V14.01,2013-03-04 10:36:00,
2013-03-04 02:41:00,38.5,34.4,30.04,North,351,2.0,2.0,85,0.00,,SCT060,0.00,0.00,VWS V14.01,2013-03-04 10:41:00,
2013-03-04 02:46:00,38.6,35.1,30.04,North,351,3.0,4.0,87,0.00,,SCT060,0.00,0.00,VWS V14.01,2013-03-04 10:46:00,
2013-03-04 02:51:00,38.6,35.1,30.04,North,351,1.0,2.0,87,0.00,,SCT060,0.00,0.00,VWS V14.01,2013-03-04 10:51:00,
2013-03-04 02:56:00,38.4,34.9,30.05,North,351,1.0,2.0,87,0.00,,SCT060,0.00,0.00,VWS V14.01,2013-03-04 10:56:00,
2013-03-04 03:01:00,38.3,34.8,30.05,North,351,0.0,2.0,87,0.00,,CLR,0.00,0.00,VWS V14.01,2013-03-04 11:01:00,
2013-03-04 03:06:00,38.2,34.7,30.05,North,351,0.0,1.0,87,0.00,,CLR,0.00,0.00,VWS V14.01,2013-03-04 11:06:00,
2013-03-04 03:11:00,38.0,34.5,30.05,North,351,0.0,0.0,87,0.00,,CLR,0.00,0.00,VWS V14.01,2013-03-04 11:11:00,
2013-03-04 03:16:00,37.8,34.3,30.05,North,351,1.0,2.0,87,0.00,,CLR,0.00,0.00,VWS V14.01,2013-03-04 11:16:00,
2013-03-04 03:21:00,37.5,34.3,30.05,North,351,2.0,2.0,88,0.00,,CLR,0.00,0.00,VWS V14.01,2013-03-04 11:21:00,
2013-03-04 03:26:00,37.2,34.3,30.05,North,351,0.0,2.0,89,0.00,,,0.00,0.00,VWS V14.01,2013-03-04 11:26:00,
2013-03-04 03:31:00,37.0,34.1,30.05,North,351,0.0,1.0,89,0.00,,,0.00,0.00,VWS V14.01,2013-03-04 11:31:00,
2013-03-04 03:36:00,37.0,34.1,30.06,North,351,0.0,1.0,89,0.00,,,0.00,0.00,VWS V14.01,2013-03-04 11:36:00,
2013-03-04 03:41:00,36.9,34.0,30.06,North,351,0.0,0.0,89,0.00,,,0.00,0.00,VWS V14.01,2013-03-04 11:41:00,
2013-03-04 03:46:00,36.9,34.0,30.06,North,351,0.0,0.0,89,0.00,,,0.00,0.00,VWS V14.01,2013-03-04 11:46:00,
2013-03-04 03:51:00,36.8,33.9,30.06,North,351,0.0,0.0,89,0.00,,,0.00,0.00,VWS V14.01,2013-03-04 11:51:00,
2013-03-04 03:56:00,36.5,33.6,30.06,North,351,0.0,0.0,89,0.00,,,0.00,0.00,VWS V14.01,2013-03-04 11:56:00,
2013-03-04 04:01:00,36.2,33.0,30.06,North,351,0.0,0.0,88,0.00,,,0.00,0.00,VWS V14.01,2013-03-04 12:01:00,
2013-03-04 04:06:00,36.0,32.8,30.06,North,351,0.0,0.0,88,0.00,,,0.00,0.00,VWS V14.01,2013-03-04 12:06:00,
2013-03-04 04:11:00,35.7,32.5,30.06,North,351,0.0,1.0,88,0.00,,,0.00,0.00,VWS V14.01,2013-03-04 12:11:00,
2013-03-04 04:16:00,35.5,32.3,30.06,North,351,0.0,0.0,88,0.00,,SCT001,0.00,0.00,VWS V14.01,2013-03-04 12:16:00,
2013-03-04 04:21:00,35.1,31.9,30.07,North,351,0.0,0.0,88,0.00,,SCT001,0.00,0.00,VWS V14.01,2013-03-04 12:21:00,
2013-03-04 04:26:00,33.8,30.6,30.07,North,351,0.0,2.0,88,0.00,,SCT001,0.00,0.00,VWS V14.01,2013-03-04 12:26:00,
2013-03-04 04:31:00,33.0,29.8,30.07,North,351,0.0,0.0,88,0.00,,SCT001,0.00,0.00,VWS V14.01,2013-03-04 12:31:00,
2013-03-04 04:36:00,32.8,29.9,30.08,North,351,0.0,0.0,89,0.00,,SCT001,0.00,0.00,VWS V14.01,2013-03-04 12:36:00,
2013-03-04 04:41:00,33.0,30.4,30.08,North,351,0.0,1.0,90,0.00,,SCT001,0.00,0.00,VWS V14.01,2013-03-04 12:41:00,
2013-03-04 04:46:00,33.2,30.6,30.08,North,351,0.0,0.0,90,0.00,,SCT001,0.00,0.00,VWS V14.01,2013-03-04 12:46:00,
2013-03-04 04:51:00,33.1,30.5,30.08,North,351,0.0,0.0,90,0.00,,SCT001,0.00,0.00,VWS V14.01,2013-03-04 12:51:00,
2013-03-04 04:56:00,33.0,30.4,30.08,North,351,0.0,0.0,90,0.00,,SCT001,0.00,0.00,VWS V14.01,2013-03-04 12:56:00,
2013-03-04 05:01:00,33.0,30.4,30.08,North,351,0.0,0.0,90,0.00,,CLR,0.00,0.00,VWS V14.01,2013-03-04 13:01:00,
2013-03-04 05:06:00,32.7,30.1,30.08,North,351,0.0,0.0,90,0.00,,CLR,0.00,0.00,VWS V14.01,2013-03-04 13:06:00,
2013-03-04 05:11:00,32.3,29.7,30.09,North,351,0.0,0.0,90,0.00,,CLR,0.00,0.00,VWS V14.01,2013-03-04 13:11:00,
2013-03-04 05:16:00,31.9,29.3,30.09,North,351,0.0,0.0,90,0.00,,CLR,0.00,0.00,VWS V14.01,2013-03-04 13:16:00,
2013-03-04 05:21:00,31.5,28.9,30.09,North,351,0.0,0.0,90,0.00,,CLR,0.00,0.00,VWS V14.01,2013-03-04 13:21:00,
2013-03-04 05:26:00,31.5,28.9,30.09,North,351,0.0,0.0,90,0.00,,CLR,0.00,0.00,VWS V14.01,2013-03-04 13:26:00,
2013-03-04 05:31:00,31.4,28.8,30.10,North,351,0.0,0.0,90,0.00,,CLR,0.00,0.00,VWS V14.01,2013-03-04 13:31:00,
2013-03-04 05:36:00,31.3,28.7,30.10,North,351,0.0,0.0,90,0.00,,CLR,0.00,0.00,VWS V14.01,2013-03-04 13:36:00,
2013-03-04 05:41:00,31.2,28.6,30.10,North,351,0.0,0.0,90,0.00,,CLR,0.00,0.00,VWS V14.01,2013-03-04 13:41:00,
2013-03-04 05:46:00,31.0,28.4,30.10,North,351,0.0,1.0,90,0.00,,CLR,0.00,0.00,VWS V14.01,2013-03-04 13:46:00,
2013-03-04 05:51:00,30.9,28.3,30.10,North,351,0.0,0.0,90,0.00,,CLR,0.00,0.00,VWS V14.01,2013-03-04 13:51:00,
2013-03-04 05:56:00,30.8,28.5,30.10,North,351,0.0,0.0,91,0.00,,CLR,0.00,0.00,VWS V14.01,2013-03-04 13:56:00,
2013-03-04 06:01:00,30.6,28.3,30.10,North,351,0.0,0.0,91,0.00,,CLR,0.00,0.00,VWS V14.01,2013-03-04 14:01:00,
2013-03-04 06:06:00,30.5,28.2,30.10,North,351,0.0,0.0,91,0.00,,CLR,0.00,0.00,VWS V14.01,2013-03-04 14:06:00,
2013-03-04 06:11:00,30.4,28.1,30.10,North,351,0.0,0.0,91,0.00,,CLR,0.00,0.00,VWS V14.01,2013-03-04 14:11:00,
2013-03-04 06:16:00,30.3,28.0,30.10,North,351,0.0,0.0,91,0.00,,FEW007,0.00,0.00,VWS V14.01,2013-03-04 14:16:00,
2013-03-04 06:21:00,30.2,27.9,30.10,North,351,0.0,0.0,91,0.00,,FEW007,0.00,0.00,VWS V14.01,2013-03-04 14:21:00,
2013-03-04 06:26:00,30.1,27.8,30.11,North,351,0.0,0.0,91,0.00,,SCT250,0.00,5.00,VWS V14.01,2013-03-04 14:26:00,
2013-03-04 06:31:00,30.0,27.7,30.10,North,351,0.0,0.0,91,0.00,,SCT250,0.00,11.00,VWS V14.01,2013-03-04 14:31:00,
2013-03-04 06:36:00,29.9,27.6,30.10,North,351,0.0,1.0,91,0.00,,SCT250,0.00,14.00,VWS V14.01,2013-03-04 14:36:00,
2013-03-04 06:41:00,30.1,27.8,30.10,North,351,0.0,0.0,91,0.00,,SCT250,0.00,18.00,VWS V14.01,2013-03-04 14:41:00,
2013-03-04 06:46:00,30.0,27.7,30.11,North,351,0.0,0.0,91,0.00,,SCT250,0.00,23.00,VWS V14.01,2013-03-04 14:46:00,
2013-03-04 06:51:00,30.0,27.7,30.11,North,351,0.0,0.0,91,0.00,,SCT250,0.00,32.00,VWS V14.01,2013-03-04 14:51:00,
2013-03-04 06:56:00,30.1,27.8,30.11,North,351,0.0,0.0,91,0.00,,SCT250,0.00,46.00,VWS V14.01,2013-03-04 14:56:00,
2013-03-04 07:01:00,30.3,28.0,30.09,North,351,0.0,0.0,91,0.00,,SCT250,0.00,60.00,VWS V14.01,2013-03-04 15:01:00,
2013-03-04 07:06:00,30.5,28.5,30.09,North,351,0.0,0.0,92,0.00,,SCT250,0.00,74.00,VWS V14.01,2013-03-04 15:06:00,
2013-03-04 07:11:00,30.8,28.8,30.06,North,351,0.0,0.0,92,0.00,,SCT250,0.00,88.00,VWS V14.01,2013-03-04 15:11:00,
2013-03-04 07:16:00,31.5,29.5,30.07,North,351,0.0,0.0,92,0.00,,SCT250,0.00,100.00,VWS V14.01,2013-03-04 15:16:00,
2013-03-04 07:21:00,32.2,30.1,30.10,North,351,0.0,0.0,92,0.00,,SCT250,0.00,105.00,VWS V14.01,2013-03-04 15:21:00,
2013-03-04 07:26:00,32.8,31.0,30.09,North,351,0.0,0.0,93,0.00,,SCT250,0.00,118.00,VWS V14.01,2013-03-04 15:26:00,
2013-03-04 07:31:00,33.4,31.6,29.98,North,351,0.0,0.0,93,0.00,,BKN035,0.00,130.00,VWS V14.01,2013-03-04 15:31:00,
2013-03-04 07:36:00,33.8,32.0,30.01,North,351,0.0,0.0,93,0.00,,,0.00,148.00,VWS V14.01,2013-03-04 15:36:00,
2013-03-04 07:41:00,34.1,32.3,30.08,North,351,0.0,1.0,93,0.00,,,0.00,167.00,VWS V14.01,2013-03-04 15:41:00,
2013-03-04 07:46:00,34.6,32.8,30.12,North,351,0.0,0.0,93,0.00,,,0.00,185.00,VWS V14.01,2013-03-04 15:46:00,
2013-03-04 07:51:00,35.2,33.4,30.12,North,351,1.0,1.0,93,0.00,,,0.00,202.00,VWS V14.01,2013-03-04 15:51:00,
2013-03-04 07:56:00,35.9,34.1,30.11,North,351,0.0,0.0,93,0.00,,,0.00,216.00,VWS V14.01,2013-03-04 15:56:00,
2013-03-04 08:01:00,36.2,34.4,30.12,North,351,0.0,0.0,93,0.00,,,0.00,234.00,VWS V14.01,2013-03-04 16:01:00,
2013-03-04 08:06:00,36.9,35.1,30.12,North,351,1.0,1.0,93,0.00,,,0.00,250.00,VWS V14.01,2013-03-04 16:06:00,
2013-03-04 08:11:00,37.5,35.7,30.12,North,351,0.0,1.0,93,0.00,,,0.00,267.00,VWS V14.01,2013-03-04 16:11:00,
2013-03-04 08:16:00,38.0,35.6,30.12,North,351,0.0,1.0,91,0.00,,,0.00,283.00,VWS V14.01,2013-03-04 16:16:00,
2013-03-04 08:21:00,38.6,35.4,30.12,North,355,2.0,2.0,88,0.00,,,0.00,299.00,VWS V14.01,2013-03-04 16:21:00,
2013-03-04 08:26:00,38.9,34.2,30.12,North,355,2.0,2.0,83,0.00,,,0.00,316.00,VWS V14.01,2013-03-04 16:26:00,
2013-03-04 08:32:00,39.0,32.7,30.13,NE,42,3.0,5.0,78,0.00,,,0.00,334.00,VWS V14.01,2013-03-04 16:32:00,
2013-03-04 08:37:00,39.0,31.8,30.13,NE,45,5.0,5.0,75,0.00,,,0.00,346.00,VWS V14.01,2013-03-04 16:37:00,
2013-03-04 08:42:00,39.0,31.1,30.13,NE,52,2.0,4.0,73,0.00,,,0.00,360.00,VWS V14.01,2013-03-04 16:42:00,
2013-03-04 08:47:00,39.6,32.0,30.13,East,94,3.0,6.0,74,0.00,,,0.00,374.00,VWS V14.01,2013-03-04 16:47:00,
2013-03-04 08:52:00,39.8,31.2,30.14,ENE,67,1.0,5.0,71,0.00,,,0.00,390.00,VWS V14.01,2013-03-04 16:52:00,
2013-03-04 08:57:00,39.8,30.5,30.14,ENE,69,3.0,5.0,69,0.00,,,0.00,404.00,VWS V14.01,2013-03-04 16:57:00,
2013-03-04 09:02:00,40.2,31.6,30.14,ENE,59,2.0,5.0,71,0.00,,,0.00,418.00,VWS V14.01,2013-03-04 17:02:00,
2013-03-04 09:07:00,40.4,31.0,30.14,ENE,67,3.0,5.0,69,0.00,,,0.00,434.00,VWS V14.01,2013-03-04 17:07:00,
2013-03-04 09:12:00,40.3,31.0,30.14,NNE,27,1.0,5.0,69,0.00,,,0.00,448.00,VWS V14.01,2013-03-04 17:12:00,
2013-03-04 09:17:00,40.4,31.4,30.14,East,82,3.0,5.0,70,0.00,,,0.00,475.00,VWS V14.01,2013-03-04 17:17:00,
2013-03-04 09:22:00,40.7,31.0,30.14,NNE,21,2.0,5.0,68,0.00,,,0.00,253.00,VWS V14.01,2013-03-04 17:22:00,
2013-03-04 09:27:00,40.8,32.1,30.15,NE,34,0.0,4.0,71,0.00,,,0.00,512.00,VWS V14.01,2013-03-04 17:27:00,
2013-03-04 09:32:00,41.5,32.8,30.14,ENE,75,0.0,5.0,71,0.00,,,0.00,519.00,VWS V14.01,2013-03-04 17:32:00,
2013-03-04 09:37:00,42.1,32.3,30.14,NE,53,3.0,5.0,68,0.00,,,0.00,383.00,VWS V14.01,2013-03-04 17:37:00,
2013-03-04 09:42:00,42.2,31.7,30.15,ENE,59,3.0,4.0,66,0.00,,,0.00,540.00,VWS V14.01,2013-03-04 17:42:00,
2013-03-04 09:47:00,42.3,31.4,30.15,NE,35,5.0,5.0,65,0.00,,OVC002,0.00,550.00,VWS V14.01,2013-03-04 17:47:00,
2013-03-04 09:52:00,42.4,31.5,30.15,NNE,32,4.0,7.0,65,0.00,,OVC002,0.00,545.00,VWS V14.01,2013-03-04 17:52:00,
2013-03-04 09:57:00,42.8,31.5,30.15,East,83,5.0,6.0,64,0.00,,OVC002,0.00,554.00,VWS V14.01,2013-03-04 17:57:00,
2013-03-04 10:02:00,43.0,31.7,30.15,NNE,23,6.0,6.0,64,0.00,,BKN130,0.00,564.00,VWS V14.01,2013-03-04 18:02:00,
2013-03-04 10:07:00,43.3,31.2,30.15,NNE,32,3.0,6.0,62,0.00,,BKN130,0.00,578.00,VWS V14.01,2013-03-04 18:07:00,
2013-03-04 10:12:00,43.7,31.5,30.15,NE,42,5.0,6.0,62,0.00,,BKN130,0.00,587.00,VWS V14.01,2013-03-04 18:12:00,
2013-03-04 10:17:00,44.3,32.5,30.15,NNE,28,0.0,5.0,63,0.00,,BKN130,0.00,599.00,VWS V14.01,2013-03-04 18:17:00,
2013-03-04 10:22:00,44.7,32.1,30.15,NNE,23,4.0,5.0,61,0.00,,BKN130,0.00,612.00,VWS V14.01,2013-03-04 18:22:00,
2013-03-04 10:27:00,45.2,32.6,30.15,NE,35,2.0,5.0,61,0.00,,BKN130,0.00,622.00,VWS V14.01,2013-03-04 18:27:00,
2013-03-04 10:29:00,45.5,32.4,30.15,NNE,31,4.0,5.0,60,0.00,,BKN130,0.00,621.00,VWS V14.01,2013-03-04 18:29:00,
2013-03-04 10:30:00,45.6,32.9,30.15,ENE,61,9.0,9.0,61,0.00,,BKN130,0.00,621.00,VWS V14.01,2013-03-04 18:30:00,
2013-03-04 10:35:00,45.8,33.5,30.15,NNE,31,3.0,9.0,62,0.00,,BKN130,0.00,633.00,VWS V14.01,2013-03-04 18:35:00,
2013-03-04 10:40:00,46.4,33.7,30.15,East,86,3.0,7.0,61,0.00,,BKN130,0.00,635.00,VWS V14.01,2013-03-04 18:40:00,
2013-03-04 10:45:00,47.4,34.2,30.15,ESE,104,5.0,7.0,60,0.00,,BKN130,0.00,645.00,VWS V14.01,2013-03-04 18:45:00,
2013-03-04 10:50:00,48.2,33.7,30.15,East,98,2.0,7.0,57,0.00,,BKN130,0.00,638.00,VWS V14.01,2013-03-04 18:50:00,
2013-03-04 10:55:00,48.3,33.3,30.15,East,82,3.0,8.0,56,0.00,,BKN130,0.00,654.00,VWS V14.01,2013-03-04 18:55:00,
2013-03-04 11:00:00,48.3,32.9,30.15,ENE,62,5.0,7.0,55,0.00,,BKN130,0.00,661.00,VWS V14.01,2013-03-04 19:00:00,
2013-03-04 11:05:00,48.4,33.0,30.15,ENE,61,4.0,9.0,55,0.00,,BKN130,0.00,666.00,VWS V14.01,2013-03-04 19:05:00,
2013-03-04 11:10:00,48.0,33.1,30.15,NNE,32,1.0,5.0,56,0.00,,BKN130,0.00,673.00,VWS V14.01,2013-03-04 19:10:00,
2013-03-04 11:15:00,48.3,33.3,30.15,ENE,75,2.0,5.0,56,0.00,,BKN130,0.00,677.00,VWS V14.01,2013-03-04 19:15:00,
2013-03-04 11:20:00,49.0,34.0,30.14,East,87,0.0,7.0,56,0.00,,BKN130,0.00,680.00,VWS V14.01,2013-03-04 19:20:00,
2013-03-04 11:25:00,49.9,34.8,30.15,ESE,111,3.0,8.0,56,0.00,,SCT130,0.00,686.00,VWS V14.01,2013-03-04 19:25:00,
2013-03-04 11:30:00,50.3,33.8,30.14,SSE,163,1.0,5.0,53,0.00,,SCT130,0.00,691.00,VWS V14.01,2013-03-04 19:30:00,
2013-03-04 11:35:00,50.2,33.3,30.14,WNW,294,2.0,4.0,52,0.00,,SCT130,0.00,696.00,VWS V14.01,2013-03-04 19:35:00,
2013-03-04 11:40:00,49.9,33.9,30.14,East,88,1.0,6.0,54,0.00,,SCT130,0.00,696.00,VWS V14.01,2013-03-04 19:40:00,
2013-03-04 11:45:00,50.8,34.3,30.14,ENE,68,1.0,5.0,53,0.00,,SCT130,0.00,696.00,VWS V14.01,2013-03-04 19:45:00,
2013-03-04 11:50:00,51.2,34.2,30.13,East,88,0.0,7.0,52,0.00,,SCT130,0.00,700.00,VWS V14.01,2013-03-04 19:50:00,
2013-03-04 11:55:00,52.1,35.0,30.13,ESE,115,1.0,8.0,52,0.00,,SCT130,0.00,703.00,VWS V14.01,2013-03-04 19:55:00,
2013-03-04 12:00:00,52.3,33.7,30.13,SW,225,1.0,3.0,49,0.00,,SCT130,0.00,705.00,VWS V14.01,2013-03-04 20:00:00,
2013-03-04 12:05:00,52.0,34.0,30.12,ESE,115,3.0,3.0,50,0.00,,SCT130,0.00,703.00,VWS V14.01,2013-03-04 20:05:00,
2013-03-04 12:10:00,52.1,34.0,30.12,NE,47,1.0,4.0,50,0.00,,SCT130,0.00,707.00,VWS V14.01,2013-03-04 20:10:00,
2013-03-04 12:15:00,52.5,33.9,30.12,ENE,64,1.0,1.0,49,0.01,,SCT130,0.01,703.00,VWS V14.01,2013-03-04 20:15:00,
2013-03-04 12:20:00,53.1,34.0,30.12,ESE,112,1.0,1.0,48,0.01,,SCT220,0.01,707.00,VWS V14.01,2013-03-04 20:20:00,
2013-03-04 12:25:00,53.5,34.8,30.12,SE,130,2.0,3.0,49,0.01,,SCT220,0.01,705.00,VWS V14.01,2013-03-04 20:25:00,
2013-03-04 12:30:00,54.0,34.2,30.11,NNE,26,1.0,3.0,47,0.01,,SCT220,0.01,703.00,VWS V14.01,2013-03-04 20:30:00,
2013-03-04 12:35:00,53.6,33.9,30.11,ESE,106,0.0,7.0,47,0.01,,SCT220,0.01,703.00,VWS V14.01,2013-03-04 20:35:00,
2013-03-04 12:40:00,53.6,34.9,30.10,ENE,60,0.0,7.0,49,0.01,,SCT220,0.01,698.00,VWS V14.01,2013-03-04 20:40:00,
2013-03-04 12:45:00,54.7,35.4,30.10,SSE,153,5.0,5.0,48,0.01,,SCT220,0.01,696.00,VWS V14.01,2013-03-04 20:45:00,
2013-03-04 12:50:00,53.9,34.2,30.10,SSE,167,5.0,5.0,47,0.01,,SCT220,0.01,693.00,VWS V14.01,2013-03-04 20:50:00,
2013-03-04 12:55:00,53.3,34.7,30.10,SSE,165,1.0,7.0,49,0.01,,SCT220,0.01,689.00,VWS V14.01,2013-03-04 20:55:00,
2013-03-04 13:00:00,53.9,34.2,30.09,SW,229,6.0,7.0,47,0.01,,SCT220,0.01,684.00,VWS V14.01,2013-03-04 21:00:00,
2013-03-04 13:05:00,54.4,34.1,30.09,SW,217,3.0,8.0,46,0.01,,SCT220,0.01,680.00,VWS V14.01,2013-03-04 21:05:00,
2013-03-04 13:10:00,54.7,34.3,30.09,North,351,2.0,4.0,46,0.01,,SCT220,0.01,675.00,VWS V14.01,2013-03-04 21:10:00,
2013-03-04 13:15:00,55.1,34.7,30.09,SE,141,3.0,6.0,46,0.01,,SCT220,0.01,671.00,VWS V14.01,2013-03-04 21:15:00,
2013-03-04 13:20:00,55.3,34.3,30.09,SSE,163,6.0,7.0,45,0.00,,SCT220,0.01,666.00,VWS V14.01,2013-03-04 21:20:00,
2013-03-04 13:25:00,54.4,33.5,30.09,SSW,196,5.0,8.0,45,0.00,,SCT220,0.01,659.00,VWS V14.01,2013-03-04 21:25:00,
2013-03-04 13:30:00,54.0,33.2,30.09,SSE,164,2.0,10.0,45,0.00,,SCT220,0.01,654.00,VWS V14.01,2013-03-04 21:30:00,
2013-03-04 13:35:00,54.7,34.3,30.09,SSE,166,2.0,5.0,46,0.00,,SCT220,0.01,647.00,VWS V14.01,2013-03-04 21:35:00,
2013-03-04 13:40:00,55.0,33.5,30.09,South,188,1.0,5.0,44,0.00,,SCT220,0.01,638.00,VWS V14.01,2013-03-04 21:40:00,
2013-03-04 13:45:00,55.1,33.6,30.08,WSW,238,0.0,5.0,44,0.00,,SCT220,0.01,633.00,VWS V14.01,2013-03-04 21:45:00,
2013-03-04 13:50:00,55.1,34.7,30.08,NNW,335,3.0,4.0,46,0.00,,SCT220,0.01,626.00,VWS V14.01,2013-03-04 21:50:00,
2013-03-04 13:55:00,55.3,34.3,30.08,ESE,119,3.0,3.0,45,0.00,,SCT220,0.01,617.00,VWS V14.01,2013-03-04 21:55:00,
2013-03-04 14:00:00,55.8,34.8,30.08,ESE,103,0.0,0.0,45,0.00,,SCT220,0.01,608.00,VWS V14.01,2013-03-04 22:00:00,
2013-03-04 14:05:00,56.2,34.6,30.08,SE,146,4.0,5.0,44,0.00,,SCT220,0.01,598.00,VWS V14.01,2013-03-04 22:05:00,
2013-03-04 14:10:00,55.5,34.5,30.08,South,179,2.0,3.0,45,0.00,,SCT220,0.01,587.00,VWS V14.01,2013-03-04 22:10:00,
2013-03-04 14:15:00,55.5,34.5,30.08,ESE,117,2.0,3.0,45,0.00,,SCT220,0.01,578.00,VWS V14.01,2013-03-04 22:15:00,
2013-03-04 14:20:00,56.2,34.6,30.07,East,98,2.0,4.0,44,0.00,,SCT220,0.01,566.00,VWS V14.01,2013-03-04 22:20:00,
2013-03-04 14:25:00,55.9,33.8,30.07,SSE,165,3.0,4.0,43,0.00,,SCT220,0.01,559.00,VWS V14.01,2013-03-04 22:25:00,
2013-03-04 14:30:00,56.0,34.4,30.07,East,87,1.0,1.0,44,0.00,,SCT220,0.01,548.00,VWS V14.01,2013-03-04 22:30:00,
2013-03-04 14:35:00,55.3,33.2,30.07,NE,50,1.0,1.0,43,0.00,,SCT220,0.01,536.00,VWS V14.01,2013-03-04 22:35:00,
2013-03-04 14:40:00,54.5,32.5,30.07,North,11,2.0,2.0,43,0.00,,SCT220,0.01,524.00,VWS V14.01,2013-03-04 22:40:00,
2013-03-04 14:45:00,54.5,31.9,30.07,NNW,331,0.0,1.0,42,0.00,,SCT220,0.01,512.00,VWS V14.01,2013-03-04 22:45:00,
2013-03-04 20:59:00,41.4,30.5,30.01,East,90,0.0,2.0,65,0.00,,SCT220,0.01,0.00,VWS V14.01,2013-03-05 04:59:00,
2013-03-04 21:00:00,41.4,30.5,30.01,East,90,0.0,2.0,65,0.00,,SCT220,0.01,0.00,VWS V14.01,2013-03-05 05:00:00,
2013-03-04 21:05:00,40.7,30.2,30.01,East,81,0.0,0.0,66,0.00,,CLR,0.01,0.00,VWS V14.01,2013-03-05 05:05:00,
2013-03-04 21:10:00,40.6,30.1,30.01,East,81,0.0,0.0,66,0.00,,CLR,0.01,0.00,VWS V14.01,2013-03-05 05:10:00,
2013-03-04 21:15:00,40.4,30.0,30.01,East,81,0.0,0.0,66,0.00,,CLR,0.01,0.00,VWS V14.01,2013-03-05 05:15:00,
2013-03-04 21:20:00,40.1,29.7,30.01,East,81,0.0,0.0,66,0.00,,CLR,0.01,0.00,VWS V14.01,2013-03-05 05:20:00,
2013-03-04 21:25:00,39.9,29.9,30.00,East,81,0.0,0.0,67,0.00,,CLR,0.01,0.00,VWS V14.01,2013-03-05 05:25:00,
2013-03-04 21:30:00,39.5,29.8,30.00,East,81,0.0,0.0,68,0.00,,CLR,0.01,0.00,VWS V14.01,2013-03-05 05:30:00,
2013-03-04 21:35:00,39.3,29.6,30.00,East,81,0.0,0.0,68,0.00,,CLR,0.01,0.00,VWS V14.01,2013-03-05 05:35:00,
2013-03-04 21:40:00,39.1,29.5,30.00,East,81,0.0,0.0,68,0.00,,CLR,0.01,0.00,VWS V14.01,2013-03-05 05:40:00,
2013-03-04 21:45:00,38.8,29.9,30.00,East,81,0.0,0.0,70,0.00,,CLR,0.01,0.00,VWS V14.01,2013-03-05 05:45:00,
2013-03-04 21:50:00,38.5,29.6,30.00,East,81,0.0,1.0,70,0.00,,CLR,0.01,0.00,VWS V14.01,2013-03-05 05:50:00,
2013-03-04 21:55:00,38.1,29.2,30.00,East,81,0.0,0.0,70,0.00,,CLR,0.01,0.00,VWS V14.01,2013-03-05 05:55:00,
2013-03-04 22:00:00,37.8,29.3,30.00,East,81,1.0,1.0,71,0.00,,CLR,0.01,0.00,VWS V14.01,2013-03-05 06:00:00,
2013-03-04 22:05:00,37.4,29.2,30.00,East,81,0.0,0.0,72,0.00,,CLR,0.01,0.00,VWS V14.01,2013-03-05 06:05:00,
2013-03-04 22:10:00,37.1,28.9,30.00,East,81,0.0,0.0,72,0.00,,CLR,0.01,0.00,VWS V14.01,2013-03-05 06:10:00,
2013-03-04 22:15:00,36.7,28.9,30.00,East,81,0.0,0.0,73,0.00,,CLR,0.01,0.00,VWS V14.01,2013-03-05 06:15:00,
2013-03-04 22:20:00,36.3,28.8,30.00,East,80,1.0,2.0,74,0.00,,CLR,0.01,0.00,VWS V14.01,2013-03-05 06:20:00,
2013-03-04 22:25:00,36.2,29.0,30.00,East,80,2.0,2.0,75,0.00,,CLR,0.01,0.00,VWS V14.01,2013-03-05 06:25:00,
2013-03-04 22:30:00,35.9,28.8,30.01,East,80,1.0,1.0,75,0.00,,CLR,0.01,0.00,VWS V14.01,2013-03-05 06:30:00,
2013-03-04 22:35:00,35.7,28.9,30.01,East,80,0.0,1.0,76,0.00,,CLR,0.01,0.00,VWS V14.01,2013-03-05 06:35:00,
2013-03-04 22:40:00,35.5,29.0,30.01,NNW,340,1.0,2.0,77,0.00,,CLR,0.01,0.00,VWS V14.01,2013-03-05 06:40:00,
2013-03-04 22:45:00,35.5,29.0,30.01,NNW,330,1.0,1.0,77,0.00,,CLR,0.01,0.00,VWS V14.01,2013-03-05 06:45:00,
2013-03-04 22:50:00,35.4,28.9,30.01,NNW,331,1.0,3.0,77,0.00,,CLR,0.01,0.00,VWS V14.01,2013-03-05 06:50:00,
2013-03-04 22:55:00,35.4,28.9,30.01,NNW,331,2.0,3.0,77,0.00,,CLR,0.01,0.00,VWS V14.01,2013-03-05 06:55:00,
2013-03-04 23:00:00,35.2,29.0,30.01,NNW,331,2.0,3.0,78,0.00,,CLR,0.01,0.00,VWS V14.01,2013-03-05 07:00:00,
2013-03-04 23:05:00,34.9,28.8,30.01,NNW,331,2.0,2.0,78,0.00,,CLR,0.01,0.00,VWS V14.01,2013-03-05 07:05:00,
2013-03-04 23:10:00,34.6,28.5,30.01,NNW,331,1.0,2.0,78,0.00,,CLR,0.01,0.00,VWS V14.01,2013-03-05 07:10:00,
2013-03-04 23:15:00,34.3,28.5,30.01,NNW,331,3.0,3.0,79,0.00,,CLR,0.01,0.00,VWS V14.01,2013-03-05 07:15:00,
2013-03-04 23:20:00,34.3,28.5,30.00,NNW,331,1.0,2.0,79,0.00,,CLR,0.01,0.00,VWS V14.01,2013-03-05 07:20:00,
2013-03-04 23:25:00,34.3,28.8,30.00,NNW,331,0.0,1.0,80,0.00,,CLR,0.01,0.00,VWS V14.01,2013-03-05 07:25:00,
2013-03-04 23:30:00,34.2,28.7,30.00,NNW,331,0.0,2.0,80,0.00,,CLR,0.01,0.00,VWS V14.01,2013-03-05 07:30:00,
2013-03-04 23:35:00,34.2,28.7,30.00,NNW,331,0.0,1.0,80,0.00,,CLR,0.01,0.00,VWS V14.01,2013-03-05 07:35:00,
2013-03-04 23:40:00,34.3,28.8,30.01,NNW,331,0.0,1.0,80,0.00,,CLR,0.01,0.00,VWS V14.01,2013-03-05 07:40:00,
2013-03-04 23:45:00,34.3,28.8,30.00,NNW,331,2.0,3.0,80,0.00,,CLR,0.01,0.00,VWS V14.01,2013-03-05 07:45:00,
2013-03-04 23:50:00,34.5,29.6,30.00,NNW,328,4.0,4.0,82,0.00,,CLR,0.01,0.00,VWS V14.01,2013-03-05 07:50:00,
2013-03-04 23:55:00,34.7,29.5,30.01,NNW,328,1.0,3.0,81,0.00,,CLR,0.01,0.00,VWS V14.01,2013-03-05 07:55:00,